Tracking 20092 objects as of 14-Dec-2019
HD Live streaming from Space Station
objects crossing your sky now

COSMOS 2251 DEB

Track COSMOS 2251 DEB now!
10-day predictions


NORAD ID: 34920
Int'l Code: 1993-036ADR
Perigee: 724.0 km
Apogee: 749.2 km
Inclination: 74.0 °
Period: 99.4 minutes
Semi major axis: 7107 km
RCS: 0.0125 m2 (small)
Launch date: June 16, 1993
Source: Commonwealth of Independent States (former USSR) (CIS)
Launch site: PLESETSK MISSILE AND SPACE COMPLEX (PKMTR)

Note: This is SATELLITE DEBRIS
aabbcc
Your satellite tracking list
Your tracking list is empty




NASA's NSSDC Master Catalog

Two Line Element Set (TLE):
1 34920U 93036ADR 19347.41685619 +.00000958 +00000-0 +26011-3 0  9998
2 34920 074.0322 259.3943 0017751 154.0040 206.2015 14.48833883353533
Source of the keplerian elements: AFSPC